Change the Weather History Date:

Tuesday, April 29, 2014

  Actual Average Record
Temperature  
Mean Temperature 54 °F -  
Max Temperature 57 °F 61 °F 90 °F (1990)
Min Temperature 50 °F 40 °F 25 °F (2012)
Degree Days  
Heating Degree Days 12    
Growing Degree Days 4 (Base 50)    
Moisture  
Dew Point 41 °F    
Average Humidity 64    
Maximum Humidity 80    
Minimum Humidity 51    
Precipitation  
Precipitation 0.01 in - - ()
Sea Level Pressure  
Sea Level Pressure 29.87 in    
Wind  
Wind Speed 18 mph (SE)    
Max Wind Speed 34 mph    
Max Gust Speed 59 mph    
Visibility 10 miles    
Events Rain    
Averages and records for this station are not official NWS values.
T = Trace of Precipitation, MM = Missing Value Source: NWS Daily Summary

Daily Weather History Graph

Daily Weather History Graph

Search for Another Location

Airport or City:

Trip Planner

Search our weather history database for the weather conditions in past years. The results will help you decide how hot, cold, wet, or windy it might be!

Date:

Astronomy

Apr. 29, 2014 Rise Set
Actual Time 6:14 AM EDT 8:14 PM EDT
Civil Twilight 5:44 AM EDT 8:45 PM EDT
Nautical Twilight 5:07 AM EDT 9:22 PM EDT
Astronomical Twilight 4:26 AM EDT 10:03 PM EDT
Moon 6:31 AM EDT 8:53 PM EDT
Length of Visible Light 15h 01m
Length of Day
13h 59m
New Moon, 0% of the Moon is Illuminated
Apr 29
New Moon
May 6
First Quarter
May 14
Full
May 21
Last Quarter
May 28
New

Hourly Weather History & Observations

Time (EDT) Temp. Dew Point Humidity Pressure Visibility Wind Dir Wind Speed Gust Speed Precip Events Conditions
12:53 AM 51.1 °F 34.0 °F 52% 29.91 in 10.0 mi NE 5.8 mph - N/A   Overcast
1:53 AM 50.0 °F 35.1 °F 57% 29.90 in 10.0 mi ENE 5.8 mph - N/A   Overcast
2:53 AM 54.0 °F 36.0 °F 51% 29.91 in 10.0 mi Variable 4.6 mph - N/A   Overcast
3:53 AM 54.0 °F 37.9 °F 55% 29.91 in 10.0 mi ESE 3.5 mph - N/A   Overcast
4:53 AM 54.0 °F 41.0 °F 62% 29.87 in 10.0 mi SE 10.4 mph 23.0 mph N/A   Overcast
5:53 AM 54.0 °F 42.1 °F 64% 29.83 in 10.0 mi East 8.1 mph 20.7 mph N/A   Partly Cloudy
6:53 AM 53.1 °F 43.0 °F 69% 29.82 in 10.0 mi SSE 23.0 mph 35.7 mph N/A   Overcast
7:53 AM 51.1 °F 45.0 °F 80% 29.81 in 6.0 mi SSE 26.5 mph 40.3 mph 0.01 in Rain Light Rain
9:53 AM 51.1 °F 44.1 °F 77% 29.80 in 10.0 mi SE 29.9 mph 47.2 mph 0.00 in Rain Light Rain
10:53 AM 51.1 °F 44.1 °F 77% 29.78 in 9.0 mi SE 33.4 mph 52.9 mph 0.00 in Rain Light Rain
11:53 AM 53.1 °F 44.1 °F 71% 29.77 in 10.0 mi SSE 33.4 mph 54.1 mph 0.00 in Rain Light Rain
12:53 PM 53.1 °F 43.0 °F 69% 29.78 in 10.0 mi SSE 32.2 mph 55.2 mph 0.00 in Rain Light Rain
1:53 PM 53.1 °F 43.0 °F 69% 29.80 in 10.0 mi SSE 33.4 mph 46.0 mph 0.00 in Rain Light Rain
2:53 PM 55.0 °F 45.0 °F 69% 29.84 in 10.0 mi South 32.2 mph 42.6 mph 0.00 in Rain Light Rain
3:53 PM 57.0 °F 44.1 °F 62% 29.85 in 10.0 mi SSE 34.5 mph 58.7 mph 0.00 in Rain Light Rain
5:53 PM 57.9 °F 43.0 °F 58% 29.89 in 10.0 mi SSE 29.9 mph 52.9 mph 0.00 in Rain Light Rain
6:53 PM 57.0 °F 43.0 °F 59% 29.91 in 10.0 mi South 28.8 mph 36.8 mph 0.00 in   Clear
7:53 PM 54.0 °F 41.0 °F 62% 29.95 in 10.0 mi SSE 24.2 mph 46.0 mph 0.00 in Rain Light Rain
8:53 PM 52.0 °F 39.9 °F 63% 29.96 in 10.0 mi South 28.8 mph 41.4 mph 0.00 in Rain Light Rain
9:53 PM 52.0 °F 39.9 °F 63% 29.95 in 10.0 mi SSE 29.9 mph 42.6 mph 0.00 in Rain Light Rain
10:53 PM 51.1 °F 39.0 °F 63% 29.96 in 10.0 mi SSE 21.9 mph 42.6 mph 0.00 in   Clear
11:53 PM 51.1 °F 39.0 °F 63% 29.95 in 10.0 mi SSE 33.4 mph 41.4 mph 0.00 in Rain Light Rain